Overview Statistics Trail Chart Weather Telemetry Raw packets
 

This is the latest recevied weather packets stored in our database for station/object N7IGG. If no packets are shown the sender has not sent any weather packets the latest 10 day(s).

<< 105 106 107 108 109 110 111 >>
Time Temp. Humidity Pressure Rain* Wind** Luminosity Snow
1777399731 11.11° C 84% 1024.9 hPa 0 mm - 131 W/m² -
1777399427 11.11° C 84% 1024.9 hPa 0 mm - 120 W/m² -
1777399125 11.11° C 84% 1024.9 hPa 0 mm - 125 W/m² -
1777398822 11.11° C 85% 1024.8 hPa 0 mm - 113 W/m² -
1777398519 10.56° C 85% 1024.9 hPa 0 mm - 127 W/m² -
1777398215 10.56° C 85% 1024.6 hPa 0 mm - 125 W/m² -
1777397912 10.56° C 85% 1024.7 hPa 0 mm - 122 W/m² -
1777397608 10.56° C 86% 1024.9 hPa 0 mm - 117 W/m² -
1777397304 10.56° C 86% 1024.7 hPa 0 mm - 111 W/m² -
1777397001 10.56° C 86% 1024.5 hPa 0 mm - 100 W/m² -
1777396698 10.56° C 86% 1024.8 hPa 0 mm - 102 W/m² -
1777396394 10.56° C 86% 1024.6 hPa 0 mm - 91 W/m² -
1777396091 10.56° C 86% 1024.8 hPa 0 mm - 95 W/m² -
1777395787 10.56° C 86% 1024.6 hPa 0 mm - 100 W/m² -
1777395482 10.56° C 87% 1024.7 hPa 0 mm - 98 W/m² -
1777395180 10.56° C 87% 1024.5 hPa 0 mm - 97 W/m² -
1777394876 10.56° C 87% 1024.7 hPa 0 mm - 93 W/m² -
1777394573 10.56° C 87% 1024.4 hPa 0 mm - 91 W/m² -
1777394269 10.56° C 87% 1024.5 hPa 0 mm - 89 W/m² -
1777393966 10° C 88% 1024.5 hPa 0 mm - 62 W/m² -
1777393664 10.56° C 88% 1024.4 hPa 0 mm - 65 W/m² -
1777393360 10.56° C 88% 1024.4 hPa 0 mm - 77 W/m² -
1777393057 10° C 88% 1024.4 hPa 0 mm - 79 W/m² -
1777392753 10° C 89% 1024.4 hPa 0 mm - 76 W/m² -
1777392449 10° C 89% 1024.3 hPa 0 mm - 76 W/m² -

* Rain latest hour (hover to see other rain measurements)
** Current wind speed in m/s (hover to see current wind gust speed)